This demonstration page uses our WeatherBlox Daily Observations layout. Learn more.

Left ArrowRight Arrow

36.19886, -115.1175

Hourly Observations for March 12, 2017

Temp ( °F °C ) Dew Point ( °F °C ) Humidity (%) Winds ( mph kmh ) Pressure ( in mb ) Visibility ( mi km ) Precip ( " mm )
12:53 am 00:53 Clear 68 20 28 -2.2 22 22 NNW 14 22 30.04 1017 10 16 N/A
1:53 am 01:53 Clear 67 19.4 28 -2.2 23 23 NNW 17 28 30.03 1017 10 16 N/A
3:53 am 03:53 Clear 66 18.9 29 -1.7 25 25 N 6 9 30.04 1017 10 16 N/A
4:53 am 04:53 Clear 65 18.3 29 -1.7 26 26 NNW 9 15 30.04 1017 10 16 N/A
5:53 am 05:53 Clear 60 15.6 30 -1.1 32 32 NNW 13 20 30.05 1018 10 16 N/A
6:53 am 06:53 Clear 62 16.7 29 -1.7 29 29 NNW 9 15 30.06 1018 10 16 N/A
7:53 am 07:53 Sunny 65 18.3 29 -1.7 26 26 NNW 13 20 30.09 1019 10 16 N/A
8:53 am 08:53 Sunny 66 18.9 30 -1.1 26 26 N 9 15 30.11 1020 10 16 N/A
9:53 am 09:53 Sunny 71 21.7 31 -0.6 23 23 NNE 8 13 30.12 1020 10 16 N/A
10:53 am 10:53 Sunny 71 21.7 30 -1.1 22 22 SE 8 13 30.12 1020 10 16 N/A
11:53 am 11:53 Sunny 76 24.4 30 -1.1 18 18 VRB 5 7 30.10 1019 10 16 N/A
12:53 pm 12:53 Sunny 79 26.1 27 -2.8 15 15 N N/A 30.07 1018 10 16 N/A
1:53 pm 13:53 Sunny 82 27.8 26 -3.3 13 13 undefined N/A 30.04 1017 10 16 N/A
2:53 pm 14:53 Sunny 85 29.4 19 -7.2 9 9 N 10 17 30.02 1017 10 16 N/A
3:53 pm 15:53 Sunny 84 28.9 22 -5.6 10 10 ENE 7 11 30.01 1016 10 16 N/A
4:53 pm 16:53 Sunny 83 28.3 23 -5 11 11 ESE 9 15 30.00 1016 10 16 N/A
5:53 pm 17:53 Sunny 81 27.2 26 -3.3 13 13 E 8 13 30.01 1016 10 16 N/A
6:53 pm 18:53 Clear 78 25.6 27 -2.8 15 15 SSE 3 6 30.03 1017 10 16 N/A
7:53 pm 19:53 Clear 77 25 28 -2.2 16 16 SSW 3 6 30.04 1017 10 16 N/A
8:53 pm 20:53 Clear 70 21.1 31 -0.6 23 23 NNW 7 11 30.06 1018 10 16 N/A
9:53 pm 21:53 Clear 69 20.6 29 -1.7 22 22 NW 8 13 30.07 1018 10 16 N/A
10:53 pm 22:53 Clear 67 19.4 28 -2.2 23 23 NW 8 13 30.08 1019 10 16 N/A
11:53 pm 23:53 Clear 69 20.6 22 -5.6 17 17 W 5 7 30.08 1019 10 16 N/A

Powered by AerisWeather